Regional Weather Roundup
Issued by NWS

Home | Current Version | Previous Version | Text Only | Print | Product List | Glossary Off
Versions: 1 2 3 4 5 6 7 8 9 10 11 12 13 14 15 16 17 18 19 20 21 22 23 24 25 26 27 28 29 30 31 32 33 34 35 36 37 38 39 40 41 42 43 44 45 46 47 48 49

000
ASUS45 KBOI 061210
RWRID

IDAHO REGIONAL WEATHER ROUNDUP
NATIONAL WEATHER SERVICE BOISE ID
500 AM MST SAT FEB 06 2016

NOTE: "FAIR" INDICATES FEW OR NO CLOUDS BELOW 12000 FEET
WITH NO SIGNIFICANT WEATHER AND/OR OBSTRUCTIONS TO VISIBILITY

IDZ012-014-061300-
SOUTHWEST IDAHO


CITY           SKY/WX    TMP DP  RH WIND       PRES   REMARKS
BOISE          CLOUDY    33  29  85 CALM      30.44R
CALDWELL       CLOUDY    33  28  81 SE8       30.46S WCI  26
MOUNTAIN HOME  MOCLDY    28  28 100 E17       30.45R WCI  16
$$

IDZ016-017-061300-
SOUTHCENTRAL IDAHO


CITY           SKY/WX    TMP DP  RH WIND       PRES   REMARKS
BURLEY         MOCLDY    32  23  69 S5        30.41S WCI  27
JEROME         MOCLDY    17  13  84 NE21G26   30.44R WCI   0
TWIN FALLS     MOCLDY    22  20  92 CALM      30.43R
$$

IDZ019>023-061300-
SOUTHEAST IDAHO


CITY           SKY/WX    TMP DP  RH WIND       PRES   REMARKS
IDAHO FALLS    CLOUDY    13  10  88 N8        30.45R WCI   2
POCATELLO      CLOUDY    15  12  88 CALM      30.44F
REXBURG        CLOUDY    20  18  92 NE3       30.44F
$$

IDZ006-010-011-018-031-032-061300-
CENTRAL IDAHO MOUNTAINS


CITY           SKY/WX    TMP DP  RH WIND       PRES   REMARKS
MCCALL         CLOUDY    27  24  89 CALM      30.32F
HAILEY         PTCLDY    18  14  86 NW8       30.42F WCI   7
STANLEY          N/A     16  12  84 CALM      30.36S
SALMON         CLOUDY    16  12  86 NE5       30.33F WCI   9
CHALLIS        CLOUDY    16  12  84 NW6       30.35S WCI   7
$$

IDZ002-004-006-007-026-061300-
NORTHERN IDAHO


CITY           SKY/WX    TMP DP  RH WIND       PRES   REMARKS
LEWISTON       CLOUDY    48  33  56 W22G35    30.24S
LOWELL           N/A     37  35  92 CALM      30.26R
COEUR D`ALENE  CLEAR     37  30  75 SW18      30.11F WCI  27
MULLAN PASS    LGT SNOW  25  22  88 W15G39    30.02R FOG     WCI  13
$$



USA.gov is the U.S. government's official web portal to all federal, state and local government web resources and services.